Weather History for Triuchirapalli, India

Change the Weather History Date:

Friday, September 7, 2012

  Actual Average Record
Temperature  
Mean Temperature 90 °F -  
Max Temperature 101 °F 90 °F 101 °F (2012)
Min Temperature 78 °F 78 °F 73 °F (2013)
Cooling Degree Days 25    
Growing Degree Days 40 (Base 50)    
Moisture  
Dew Point 70 °F    
Average Humidity 57    
Maximum Humidity 83    
Minimum Humidity 26    
Precipitation  
Precipitation 0.16 in - - ()
Sea Level Pressure  
Sea Level Pressure 29.76 in    
Wind  
Wind Speed 8 mph ()    
Max Wind Speed 17 mph    
Max Gust Speed -    
Visibility 4.0 miles    
Events Rain    
Averages and records for this station are not official NWS values.
T = Trace of Precipitation, MM = Missing Value Source: Averaged Metar Reports

Daily Weather History Graph

Daily Weather History Graph

Search for Another Location

Airport:

Trip Planner

Search our weather history database for the weather conditions in past years. The results will help you decide how hot, cold, wet, or windy it might be!

Date:

Astronomy

Sep. 07, 2012 Rise Set
Actual Time 6:05 AM IST 6:20 PM IST
Civil Twilight 5:44 AM IST 6:42 PM IST
Nautical Twilight 5:19 AM IST 7:06 PM IST
Astronomical Twilight 4:54 AM IST 7:31 PM IST
Moon 11:10 PM IST (9/7) 11:18 AM IST (9/7)
Length of Visible Light 12h 58m
Length of Day
12h 15m
Waning Gibbous, 62% of the Moon is Illuminated
Sep 7
Waning Gibbous
Sep 8
Last Quarter
Sep 16
New
Sep 23
First Quarter
Sep 30
Full

Hourly Weather History & Observations

Time (IST) Temp. Heat Index Dew Point Humidity Pressure Visibility Wind Dir Wind Speed Gust Speed Precip Events Conditions
12:10 AM 80.6 °F 84.6 °F 71.6 °F 74% 29.80 in 3.7 mi West 2.3 mph - N/A   Partly Cloudy
12:40 AM 80.6 °F 85.4 °F 73.4 °F 79% 29.80 in 3.7 mi WNW 3.5 mph - N/A   Scattered Clouds
1:10 AM 80.6 °F 85.4 °F 73.4 °F 79% 29.80 in 3.7 mi WNW 3.5 mph - N/A   Scattered Clouds
1:40 AM 78.8 °F - 69.8 °F 74% 29.80 in 3.7 mi West 3.5 mph - N/A   Scattered Clouds
2:10 AM 78.8 °F - 69.8 °F 74% 29.77 in 3.7 mi WNW 10.4 mph - N/A   Scattered Clouds
2:30 AM 80 °F - 70 °F 65% 29.76 in 2 mi WNW 6.9 mph - -   Haze
2:40 AM 78.8 °F - 69.8 °F 74% 29.77 in 3.7 mi West 9.2 mph - N/A   Scattered Clouds
3:10 AM 78.8 °F - 69.8 °F 74% 29.74 in 3.7 mi WNW 9.2 mph - N/A   Scattered Clouds
3:40 AM 78.8 °F - 69.8 °F 74% 29.74 in 3.7 mi WNW 9.2 mph - N/A   Scattered Clouds
4:10 AM 78.8 °F - 69.8 °F 74% 29.74 in 3.7 mi WNW 11.5 mph - N/A   Scattered Clouds
5:30 AM 80 °F - 69 °F 62% 29.75 in 2 mi West 9.2 mph - -   Haze
6:10 AM 78.8 °F - 69.8 °F 74% 29.77 in 3.7 mi West 11.5 mph - N/A   Scattered Clouds
7:10 AM 78.8 °F - 71.6 °F 78% 29.80 in 3.7 mi NW 8.1 mph - N/A   Scattered Clouds
8:10 AM 82.4 °F 86.3 °F 69.8 °F 66% 29.83 in 3.7 mi WNW 9.2 mph - N/A   Scattered Clouds
8:30 AM 83 °F - 71 °F 58% 29.85 in 2 mi WNW 11.5 mph - -   Haze
8:40 AM 84.2 °F 88.4 °F 69.8 °F 62% 29.86 in 3.7 mi WNW 10.4 mph - N/A   Mostly Cloudy
9:10 AM 86.0 °F 90.4 °F 69.8 °F 58% 29.86 in 3.7 mi West 12.7 mph - N/A   Mostly Cloudy
9:40 AM 87.8 °F 92.6 °F 69.8 °F 55% 29.83 in 3.7 mi WNW 11.5 mph - N/A   Scattered Clouds
10:10 AM 89.6 °F 96.2 °F 71.6 °F 55% 29.83 in 3.7 mi WNW 13.8 mph - N/A   Partly Cloudy
10:40 AM 91.4 °F 96.8 °F 69.8 °F 49% 29.83 in 3.7 mi WNW 15.0 mph - N/A   Partly Cloudy
11:10 AM 93.2 °F 98.8 °F 69.8 °F 46% 29.83 in 3.7 mi WNW 16.1 mph - N/A   Partly Cloudy
11:30 AM 93 °F - 68 °F 34% 29.80 in 2 mi WNW 16.1 mph - -   Haze
11:40 AM 93.2 °F 98.8 °F 69.8 °F 46% 29.80 in 3.7 mi West 16.1 mph - N/A   Partly Cloudy
12:10 PM 95.0 °F 99.5 °F 68.0 °F 41% 29.80 in 5.0 mi WNW 15.0 mph - N/A   Partly Cloudy
12:40 PM 96.8 °F 103.1 °F 69.8 °F 41% 29.77 in 6.2 mi West 13.8 mph - N/A   Partly Cloudy
1:10 PM 96.8 °F 103.1 °F 69.8 °F 41% 29.74 in 6.2 mi West 12.7 mph - N/A   Partly Cloudy
1:40 PM 98.6 °F 104.1 °F 68.0 °F 37% 29.71 in 6.2 mi WSW 10.4 mph - N/A   Partly Cloudy
2:10 PM 98.6 °F 104.1 °F 68.0 °F 37% 29.68 in 6.2 mi WSW 15.0 mph - N/A   Partly Cloudy
2:30 PM 100 °F - 69 °F 27% 29.68 in 6 mi WSW 6.9 mph - -   Scattered Clouds
2:40 PM 100.4 °F 107.8 °F 69.8 °F 37% 29.68 in 6.2 mi WSW 9.2 mph - N/A   Partly Cloudy
3:10 PM 100.4 °F 107.8 °F 69.8 °F 37% 29.68 in 6.2 mi West 17.3 mph - N/A   Partly Cloudy
3:40 PM 100.4 °F 107.8 °F 69.8 °F 37% 29.68 in 6.2 mi WSW 4.6 mph - N/A   Scattered Clouds
4:10 PM 98.6 °F 105.5 °F 69.8 °F 39% 29.68 in 6.2 mi West 9.2 mph - N/A   Scattered Clouds
4:40 PM 98.6 °F 105.5 °F 69.8 °F 39% 29.68 in 6.2 mi WNW 16.1 mph - N/A   Scattered Clouds
5:10 PM 98.6 °F 105.5 °F 69.8 °F 39% 29.68 in 5.0 mi West 11.5 mph - N/A   Mostly Cloudy
5:30 PM 96 °F - 64 °F 26% 29.68 in 2 mi SW 5.8 mph - -   Haze
5:40 PM 95.0 °F 101.3 °F 69.8 °F 44% 29.68 in 5.0 mi SW 9.2 mph - N/A   Scattered Clouds
6:10 PM 95.0 °F 98.5 °F 66.2 °F 39% 29.71 in 5.0 mi WSW 9.2 mph - N/A   Scattered Clouds
6:40 PM 91.4 °F 95.4 °F 68.0 °F 46% 29.74 in 3.7 mi South 5.8 mph - N/A   Partly Cloudy
7:10 PM 89.6 °F 94.7 °F 69.8 °F 52% 29.74 in 3.7 mi SSE 5.8 mph - N/A   Partly Cloudy
7:40 PM 89.6 °F 94.7 °F 69.8 °F 52% 29.74 in 3.7 mi SSW 9.2 mph - N/A   Partly Cloudy
8:10 PM 82.4 °F 88.2 °F 73.4 °F 74% 29.77 in 3.7 mi SW 9.2 mph - N/A   Light Drizzle
8:30 PM 82 °F - 74 °F 70% 29.77 in 2 mi SW 5.8 mph - - Rain Light Drizzle
8:40 PM 82.4 °F 88.2 °F 73.4 °F 74% 29.77 in 3.7 mi SW 4.6 mph - N/A   Light Drizzle
9:10 PM 80.6 °F 85.4 °F 73.4 °F 79% 29.80 in 3.7 mi SW 4.6 mph - N/A   Light Drizzle
10:10 PM 80.6 °F 85.4 °F 73.4 °F 79% 29.83 in 2.5 mi SW 3.5 mph - N/A Rain Light Rain
11:30 PM 80 °F - 75 °F 80% 29.81 in 1 mi WNW 5.8 mph - - Rain Light Rain
11:40 PM 78.8 °F - 73.4 °F 83% 29.80 in 1.9 mi NW 6.9 mph - N/A Rain Rain